Terminal Aerodrome Forecast
Issued by NWS Grand Rapids, MI

Home | Current Version | Previous Version | Text Only | Print | Product List | Glossary On
Versions: 1 2 3 4 5 6 7 8 9 10 11 12 13 14 15 16 17 18 19 20 21 22 23 24 25 26 27 28 29 30 31 32 33 34 35 36 37 38 39 40 41 42 43 44 45 46 47 48 49 50
464
FTUS43 KGRR 181740
TAFGRR
TAF
KGRR 181740Z 1818/1918 20010G21KT P6SM VCSH BKN080
     FM190300 23009KT 6SM SHRA BR BKN090
     FM191200 23011KT P6SM BKN030
     FM191700 24011G20KT P6SM BKN035=

USA.gov is the U.S. government's official web portal to all federal, state and local government web resources and services.